Tracking 35237 objects as of 6-Sep-2026
HD Live streaming from Space Station
objects crossing your sky now

ITASAT-1

Track ITASAT-1 now!
10-day predictions
ITASAT-1 is classified as:


NORAD ID: 43786
Int'l Code: 2018-099AE
Launch date: December 3, 2018
Source: (TBD)
Launch site: AIR FORCE WESTERN TEST RANGE (AFWTR)

Uplink (MHz):
Downlink (MHz): 145.860/2400.150
Beacon (MHz):
Mode: 1k2 BPSK/14k4 BPSK
Call sign: PY0EIA
Status: Inactive

Your satellite tracking list
Your tracking list is empty




NASA's NSSDC Master Catalog

Two Line Element Set (TLE):
1 43786U 18099AE  26249.08647465  .00003992  00000-0  18846-3 0  9991
2 43786  97.3959 298.9995 0013844  73.0837 287.1914 15.19931475425199
Source of the keplerian elements: AFSPC